Cloud_Cover
14 9 38 5 9 15 92 18 10 8 15 72 36 63 77 17 5 5 5 0 0 0 0 0 0 0 0 0 0 0 0 0 0 0 0 0 1 98 36 0 1 0 0 0 0
0 0 2 3 8 2 0 14 5 1 4 2 6 12 19 32 4 3 5 2 0 0 0 0 0 0 0 0 0 0 0 0 0 0 93 5 99 100 57 0 57 5 0 0 0
0 0 0 0 3 4 0 0 0 0 0 0 4 5 4 9 0 0 0 0 0 0 0 0 0 0 0 0 0 0 0 0 0 0 10 25 6 100 5 0 22 8 4 0 0
1 0 0 0 0 0 0 0 0 0 0 1 1 0 0 0 0 0 0 0 0 0 0 0 0 0 0 0 0 3 0 0 0 0 3 76 97 100 0 0 3 3 0 1 0
3 2 0 2 2 2 0 0 0 0 3 14 23 0 0 6 0 5 0 0 0 0 0 0 0 5 4 0 0 3 0 0 0 0 5 40 5 100 2 0 0 4 4 2 5
5 4 5 5 5 5 5 0 0 0 17 20 30 6 20 93 3 0 2 2 0 0 0 1 5 15 26 5 4 4 3 0 0 0 0 1 4 40 28 5 0 0 3 4 0
5 4 5 5 5 5 5 5 6 6 13 35 97 10 82 94 59 4 0 2 4 5 5 5 5 41 12 5 5 23 5 5 5 3 0 0 5 0 0 0 0 0 0 0 0
91 97 8 68 18 19 48 71 84 49 54 55 89 2 92 100 26 5 5 2 3 5 4 5 5 10 43 30 7 5 6 57 94 5 5 4 7 28 0 0 1 0 0 0 0
100 26 5 100 44 9 5 41 65 100 100 93 39 8 97 100 99 5 5 5 41 42 5 0 5 40 98 10 5 68 97 54 97 100 4 20 100 100 88 1 3 0 0 0 0
97 56 50 5 5 6 5 5 5 8 8 35 82 98 100 100 100 100 100 14 10 5 16 5 6 42 29 5 15 18 6 6 53 100 86 48 100 100 100 100 100 65 2 3 0
6 5 11 6 91 100 11 0 6 4 10 14 35 6 100 49 100 100 100 100 100 70 17 5 5 40 15 5 5 5 6 57 100 33 6 100 98 100 100 100 100 100 79 5 5
100 100 100 20 17 10 13 5 5 5 44 5 30 83 94 100 100 100 100 100 100 94 77 79 68 14 6 5 5 32 5 81 100 100 90 92 96 100 100 100 100 100 100 100 100
100 100 100 100 8 5 5 5 21 3 5 100 26 9 10 95 100 100 100 100 100 76 42 40 6 5 5 5 1 40 75 38 12 68 90 74 100 100 100 100 100 100 100 100 100
100 100 100 100 12 22 5 5 7 5 5 8 99 100 41 84 100 100 100 98 100 84 90 59 99 94 37 35 2 44 49 23 6 7 80 56 29 100 100 100 100 100 100 100 100
100 100 100 100 84 55 16 6 6 39 66 3 5 21 99 95 100 100 100 98 84 97 100 100 100 100 85 22 93 100 76 5 54 95 13 100 34 100 100 100 100 100 100 100 84
100 100 100 100 100 100 92 39 5 50 85 5 5 5 10 50 83 100 100 100 100 100 92 60 67 100 98 97 98 26 6 5 5 7 6 96 14 100 100 100 100 100 100 100 100
97 100 100 99 100 100 100 87 54 100 99 5 5 22 84 69 30 55 58 76 100 85 100 79 92 99 57 8 46 95 77 23 27 5 5 1 7 100 100 100 100 100 100 44 21
100 100 100 100 100 100 100 100 100 55 5 46 98 85 6 90 92 84 70 23 99 91 57 79 100 98 99 7 9 22 97 100 100 55 2 3 1 98 100 100 100 100 74 5 8
100 100 100 100 100 100 100 100 5 5 100 100 100 67 65 100 100 94 100 45 52 100 100 74 10 68 59 90 100 100 96 100 100 100 99 81 21 5 100 100 100 43 19 100 100
100 100 100 100 100 100 100 100 99 100 100 100 100 100 63 71 98 100 98 16 29 38 100 100 97 5 36 100 20 100 100 100 100 100 100 100 100 74 100 100 100 100 100 99 100
100 100 100 100 100 100 100 100 100 100 100 100 100 100 100 100 100 100 83 13 100 100 95 98 100 57 100 100 100 100 100 100 100 100 100 100 100 100 86 100 100 100 100 100 100
100 100 100 100 100 100 100 100 100 100 100 100 100 100 100 100 100 100 100 100 99 100 100 100 100 100 100 100 100 100 100 100 100 100 100 100 100 100 100 100 100 100 100 100 100
100 100 100 100 100 100 100 100 100 100 100 100 100 100 100 100 100 100 100 100 100 100 100 100 100 100 100 100 100 100 100 100 100 100 100 100 100 100 100 100 100 100 100 100 100
95 100 100 100 100 100 100 100 100 100 100 100 100 100 100 100 100 100 100 100 100 100 100 100 100 100 100 94 22 42 53 73 76 96 77 84 97 54 31 72 98 100 96 12 7
8 14 58 91 100 100 99 100 100 100 100 100 100 100 100 100 100 100 100 100 100 100 100 100 100 97 77 87 100 99 89 8 93 86 100 96 100 4 18 5 0 4 7 4 0
5 5 44 81 89 90 100 60 63 99 100 100 100 100 100 100 100 100 100 100 100 87 64 73 94 100 69 5 64 98 5 5 5 70 100 100 33 5 5 5 5 2 0 0 1
5 10 20 6 5 18 7 5 5 5 28 77 26 84 97 81 52 57 84 90 100 98 100 100 100 100 95 19 100 98 1 0 2 0 0 0 2 7 5 5 5 5 5 5 7